www.pogodaiklimat.ru

АРХИВ ПОГОДЫ в Нью-Йорке Сити

Время (UTC), дата Ветер
(напр.,м/с)
 
Видим.   Явления Облачность Т
(С)
Тd
(С)
f
(%)
Тe
(С)
Тes
(С)
Комфортность

P
(гПа)

Po
(гПа)
Тmin
(С)
Tmax
(С)
R
(мм)
SD
(см)
22:51 15.09 штиль  16 км    ясно  +22.2  +17.8  76  +27  +27  душно  1021.9  1016.9  +21.7  +26.7     
23:51 15.09 штиль  16 км    ясно  +22.0  +18.0  78  +27  +27  душно  1022.4  1017.6  +20.6  +22.2     
00:51 16.09 штиль  16 км    ясно  +21.0  +17.0  78  +25  +25  комфорт  1022.2  1017.2  +20.6  +22.2     
01:51 16.09 штиль  16 км    ясно  +21.1  +16.1  73  +24  +24  комфорт  1022.4  1017.6  +20.6  +22.2     
02:51 16.09 штиль  16 км    ясно  +21.0  +17.0  78  +25  +25  комфорт  1022.3  1017.6  +20.6  +22.2     
03:51 16.09 штиль  16 км    ясно  +20.6  +17.2  81  +24  +24  комфорт  1022.3  1017.6  +20.6  +22.2     
04:51 16.09 штиль  16 км    ясно  +20.6  +17.2  81  +24  +24  комфорт  1022.3  1017.6  +20.6  +22.2     
05:51 16.09 штиль  16 км    ясно  +21.0  +17.0  78  +25  +25  комфорт  1021.9  1017.2  +19.4  +21.1     
06:51 16.09 штиль  16 км    ясно  +21.0  +18.0  83  +25  +25  комфорт  1022.1  1017.2  +19.4  +21.1     
07:51 16.09 штиль  14 км    ясно  +20.6  +17.2  81  +24  +24  комфорт  1022.4  1017.6  +19.4  +21.1     
08:51 16.09 штиль  16 км    ясно  +20.0  +18.0  88  +23  +23  комфорт  1022.5  1017.6  +19.4  +21.1     
09:51 16.09 штиль  16 км    ясно  +20.0  +18.0  88  +23  +23  комфорт  1022.8  1017.9  +19.4  +21.1     
10:51 16.09 штиль  16 км    ясно  +21.1  +18.3  84  +25  +25  комфорт  1023.2  1018.2  +19.4  +21.1     
11:51 16.09 штиль  16 км    ясно  +22.0  +18.0  78  +27  +28  душно  1023.2  1018.2  +21.1  +28.9     
12:51 16.09 штиль  14 км    ясно  +24.0  +18.0  69  +28  +31  душно  1023.5  1018.6  +21.1  +28.9     
13:51 16.09 штиль  16 км    ясно  +25.0  +18.9  69  +30  +35  душно  1023.5  1018.6  +21.1  +28.9     
14:51 16.09 штиль  16 км    ясно  +27.0  +18.0  58  +32  +38  очень
душно 
1023.2  1018.2  +21.1  +28.9     
15:51 16.09 штиль  16 км    8/8 м  +28.0  +19.0  58  +33  +37  очень
душно 
1022.7  1017.9  +21.1  +28.9     
16:51 16.09 штиль  16 км    2/2 м  +27.8  +20.0  63  +34  +48  очень
душно 
1022.4  1017.6  +21.1  +28.9     
17:51 16.09 штиль  16 км    ясно  +28.0  +17.0  51  +32  +40  душно  1022.0  1017.2  +22.8  +28.9     
18:51 16.09 штиль  16 км    2/2 м  +27.0  +20.0  66  +33  +44  очень
душно 
1021.8  1017.2  +22.8  +28.9     
19:51 16.09 штиль  16 км    ясно  +26.7  +19.4  64  +32  +37  очень
душно 
1021.5  1016.9  +22.8  +28.9     
20:51 16.09 штиль  16 км    ясно  +26.0  +19.0  65  +31  +33  очень
душно 
1021.8  1016.9  +22.8  +28.9     
21:51 16.09 штиль  16 км  слабый дождь  ясно  +24.0  +18.0  69  +28  +29  душно  1021.9  1016.9  +22.8  +28.9     
22:51 16.09 штиль  16 км    ясно  +23.3  +17.8  71  +29  +29  душно  1022.1  1017.2  +22.8  +28.9     
23:51 16.09 штиль  16 км  слабый дождь  ясно  +23.0  +18.0  73  +28  +28  душно  1022.4  1017.6  +21.1  +23.3     
00:51 17.09 штиль  16 км  слабый дождь  ясно  +23.0  +18.0  73  +28  +28  душно  1022.3  1017.6  +21.1  +23.3     
01:51 17.09 штиль  16 км  слабый дождь  ясно  +22.8  +17.8  73  +28  +28  душно  1022.6  1017.9  +21.1  +23.3     
02:51 17.09 штиль  16 км  дождь, дымка  ясно  +23.0  +17.0  69  +28  +28  душно  1022.5  1017.6  +21.1  +23.3     
03:51 17.09 штиль  16 км  слабый дождь, дымка  ясно  +21.7  +17.8  78  +26  +26  душно  1022.2  1017.6  +21.1  +23.3     
04:51 17.09 штиль  16 км  сильный дождь, дымка  ясно  +21.1  +17.8  81  +25  +25  комфорт  1022.2  1017.6  +21.1  +23.3     
05:51 17.09 штиль  16 км    ясно  +21.0  +18.0  83  +25  +25  комфорт  1021.8  1017.2  +20.0  +22.2     
06:51 17.09 штиль  16 км  слабый дождь, дымка  ясно  +21.0  +18.0  83  +25  +25  комфорт  1021.6  1016.9  +20.0  +22.2     
07:51 17.09 штиль  16 км  слабый дождь  ясно  +20.6  +18.3  87  +24  +24  комфорт  1021.5  1016.5  +20.0  +22.2     
08:51 17.09 штиль  16 км  сильный дождь, туман  10/10 м
[средняя] 
+21.0  +19.0  88  +25  +25  комфорт  1021.6  1016.9  +20.0  +22.2     
09:51 17.09 штиль  16 км  слабый дождь, дымка  10/10 м
[средняя] 
+21.0  +19.0  88  +25  +25  комфорт  1021.5  1016.5  +20.0  +22.2     
10:20 17.09 штиль  16 км  слабый дождь, дымка  10/10 м
[средняя] 
+22.0  +19.0  83  +27  +27  душно  1021.3  1016.5  +20.0  +22.2     
11:19 17.09 штиль  16 км  слабый дождь, дымка  10/10 м
[средняя] 
+22.0  +20.0  88  +28  +28  душно  1021.0  1016.2  +22.2  +26.1     
12:32 17.09 штиль  14 км  слабый дождь, дымка  10/10 м
[средняя] 
+23.0  +21.0  89  +31  +31  очень
душно 
1020.6  1015.9  +22.2  +26.1     
13:30 17.09 штиль  16 км  слабый дождь, дымка  10/10 м
[средняя] 
+24.0  +21.0  83  +30  +30  очень
душно 
1020.4  1015.9  +22.2  +26.1     
14:48 17.09 штиль  16 км  слабый дождь, дымка  10/10 м
[средняя] 
+24.0  +21.0  83  +30  +30  очень
душно 
1019.8  1015.2  +22.2  +26.1     
15:18 17.09 штиль  16 км  слабый дождь, дымка  10/10 м
[средняя] 
+24.0  +21.0  83  +30  +30  очень
душно 
1019.3  1014.9  +22.2  +26.1     
16:30 17.09 штиль  16 км    10/10 м
[средняя] 
+25.0  +22.0  83  +32  +32  очень
душно 
1018.6  1013.9  +22.2  +26.1     
17:31 17.09 штиль  16 км    10/10 м
[средняя] 
+24.0  +21.0  83  +30  +30  очень
душно 
1017.8  1013.5  +23.9  +25.0     
18:51 17.09 штиль  16 км  дымка  10/10 м
[средняя] 
+25.0  +22.0  83  +32  +32  очень
душно 
1017.0  1012.2  +23.9  +25.0     
19:26 17.09 штиль  16 км    10/10 м
[средняя] 
+24.0  +22.0  89  +31  +31  очень
душно 
1016.7  1011.8  +23.9  +25.0     
20:51 17.09 штиль  16 км  дымка  10/10 м
[средняя] 
+24.0  +21.0  83  +30  +30  очень
душно 
1016.0  1011.2  +23.9  +25.0     
21:51 17.09 штиль  16 км  дымка  10/10 м
[средняя] 
+24.0  +21.0  83  +30  +30  очень
душно 
1015.8  1010.8  +23.9  +25.0     

 

Местоположение метеостанции Central Park: широта 40.7833 долгота -73.9667 высота над уровнем моря 47 м.

В архиве по умолчанию представлена погода в Нью-Йорке Сити за последние 1-2 суток. Обновление информации о фактической погоде в базе происходит ежечасно! Архивные данные за месяц целиком и за предыдущие месяцы Вы можете получить, выбрав интересующий диапазон дат из раскрывающегося списка и нажав кнопку "Ввод!".

Внимание! Архив погоды МЕТАР в базе сайта в настоящее время начинается c 1 января 2013 г. Нет смысла пытаться выбрать более раннюю дату.

Внимание! Время в таблицах - всемирное. Для получения местного времени необходимо прибавить поправку, которая в Нью-Йорке Сити равна -5 ч.

Ветер - указаны скорость ветра в м/с и направление, откуда дует ветер: С - северный, СВ - северо-восточный, В - восточный, ЮВ - юго-восточный, Ю - южный, ЮЗ - юго-западный, З - западный, СЗ - северо-западный.
Видимость - горизонтальная дальность видимости в метрах или километрах. При видимости от 1 до 10 км при отсутствии осадков обычно наблюдается дымка, при ухудшении видимости до 1 км и менее - туман. В сухую погоду видимость может ухудшаться дымом, пылью или мглою.
Атмосферные явления - указаны явления, наблюдавшиеся в указанный момент времени.
Облачность - указаны через наклонную черту верхняя и нижняя облачность в баллах и высота нижней границы облаков в метрах. Внимание: облачность, как и прочие метеорологические величины в США измеряются автоматическими метеостанциями. Указанные значения в баллах носят условный характер и показывают процент времени, в течение которого, в среднем, лазерный луч высотомера отражался от облаков обратно.
T - Температура воздуха - температура, измеренная на высоте 2 м над землей.
Td - Температура точки росы - температура, при понижении до которой содержащийся в воздухе водяной пар достигнет насыщения.
f - Относительная влажность воздуха - влажноcть воздуха, измеренная на высоте 2 м над землей.
Te - Эффективная температура - температура, которую ощущает одетый по сезону человек в тени. Характеристика душности погоды. При расчете учитывается влияние влажности воздуха и скорости ветра на теплоощущения человека.
Tes - Эффективная температура на солнце - температура, которую ощущает человек, с поправкой на солнечный нагрев. Характеристика знойности погоды. Зависит от высоты солнца над горизонтом, облачности и скорости ветра. Ночью, в пасмурную погоду, а также при ветре 12 м/с и более поправка равна нулю.
P - Атмосферное давление - приведенное к уровню моря атмосферное давление.
Po - Атмосферное давление - измеренное на уровне метеостанции атмосферное давление.
Tmin - Минимальная температура - минимум температуры воздуха на высоте 2 м над землей.
Tmax - Максимальная температура - максимум температуры воздуха на высоте 2 м над землей.
R - Количество осадков - Количество выпавших осадков за 3 или 6 часов, мм.
SD - Снежный покров - Высота снежного покрова, см.